CZ-3A DEB, 40152

Orbit data source: Space-Track

CZ-3A DEB, 40152 is space debris in HEO originally from a launch on Fri, 02 Feb 2007 UTC launched from the Xichang Space Center, China (XSC). Debris objects in space refer to the collection of defunct objects orbiting the Earth. Examples of debris include non-operational satellites, rocket bodies, and fragments generated from explosions, collisions, or faulty payload assembly.

Loading next visibility...
Identifier
40152, 2007-003AL
Orbit
HEO
Country
Flag of CNCN / PRC
Related business
Manufacturer
Unknown
Mission
Spacecraft
Bus & Motor
Unknown
Mass
Unknown
Launch date (UTC)
2007-02-02 (19 years ago)
Launch vehicle
Unknown
Launch site
Xichang Space Center, China (XSC)
Object type
Payload
Rocket body
Debris
Shape & HBR
Unknown
Radar Cross Section
Medium (>0.1 m² and <1 m²)

Expand to show TLE details & history
Last TLE update: 6 days ago

TLE from 6 days ago
0 CZ-3A DEB
1 40152U 07003AL  26167.17778131 -.00000091  00000-0  00000-0 0  9990
2 40152  28.6407  41.7246 7300282 164.9801 241.8480  1.90830497   587
Epoch: 2026-06-16T04:16Z
TLE epoch observation values (Epoch: 2026-06-16T04:16:00.305Z)
Latitude
0.00007°
Longitude
73.26584°
Altitude
37,131.949 km
Speed
1.951 km/s
True Right ascension
02h 46m 52s
True Declination
0° 00' 00"
Sunlit
Object was in daylight at epoch
Visualization orbit readout
Latitude
Unknown
Longitude
Unknown
Altitude
Unknown
Speed
Unknown
Apparent Right ascension
Unknown
Apparent Declination
Unknown
Sunlit
N/A
Visualization observer readout
Local Sidereal Time
21:37:28
Azimuth
Unknown
Elevation
Unknown
Doppler factor
Unknown
Orbital elements
Apogee altitude
41,127.178 km
Perigee altitude
1,035.092 km
Semi-major axis
27,459.272 km
Eccentricity
0.73003
Inclination
28.6407°
RAAN
41.7246°
Arg. of periapsis
164.9801°
True anomaly
194.97057°
Mean anomaly
241.848°
Eccentric anomaly
216.79515°
Mean motion
0.47699 °/min
Orbital period
754.73 mins
BSTAR
0
Loading maneuver chart data...
Computing Atmospheric mass density...
Loading historical data...
Loading historical data...
Loading historical data...
Loading historical data...
Loading historical data...
Loading historical data...
Loading historical data...

Documentation

Showing up to 5 results
|